[Iaude] MPEC T95: 2023 TX2 [a=2.27,e=0.55,i=3.4,H=25.3]
    mpec at marsden.cfa.harvard.edu 
    mpec at marsden.cfa.harvard.edu
       
    Sun Oct  8 09:57:51 EDT 2023
    
    
  
M.P.E.C. 2023-T95                               Issued 2023 October 8, 13:56 UT
     The Minor Planet Electronic Circulars contain information on unusual
         minor planets, routine data on comets and natural satellites,
         and occasional editorial announcements.  They are published
    on behalf of Division F of the International Astronomical Union by the
          Minor Planet Center, Smithsonian Astrophysical Observatory,
                          Cambridge, MA 02138, U.S.A.
			  
             Prepared using the Tamkin Foundation Computer Network
                              MPC at CFA.HARVARD.EDU
            URL https://www.minorplanetcenter.net/    ISSN 1523-6714
                                    2023 TX2                                    
Observations:
     K23T02X* C2023 10 05.23230322 42 01.217+17 20 40.97         21.89wXET095F51
     K23T02X  C2023 10 05.25856822 42 05.622+17 22 00.52         21.97wXET095F51
     K23T02X  C2023 10 05.27165922 42 07.764+17 22 39.96         21.83wXET095F51
     K23T02X  C2023 10 05.53433622 42 52.373+17 35 19.97         21.74GVET095F51
     K23T02X  C2023 10 05.53498022 42 52.496+17 35 21.84         20.97GVET095F51
     K23T02X KC2023 10 06.09189522 45 02.10 +18 03 31.7          21.3 VuET095H21
     K23T02X KC2023 10 06.10031622 45 03.73 +18 03 58.6          21.6 VuET095H21
     K23T02X KC2023 10 06.10518222 45 04.65 +18 04 14.2          21.4 VuET095H21
     K23T02X KC2023 10 07.11190322 49 07.71 +18 59 26.4          21.0 VuET095H21
     K23T02X KC2023 10 07.12032222 49 09.62 +18 59 55.7          21.1 VuET095H21
     K23T02X KC2023 10 07.80193 22 52 16.15 +19 40 03.4                VET095204
     K23T02X HC2023 10 07.82787 22 52 22.68 +19 41 40.3          21.3 GVET095204
     K23T02X KB2023 10 07.92804922 52 48.69 +19 47 54.8                VET095I93
     K23T02X KB2023 10 07.93539522 52 50.56 +19 48 22.1          20.1 GVET095I93
     K23T02X KB2023 10 07.94225922 52 52.28 +19 48 47.5          20.4 GVET095I93
     K23T02X KC2023 10 08.06892 22 53 34.77 +19 56 46.0          20.5 VqET095734
     K23T02X KC2023 10 08.07536 22 53 36.51 +19 57 10.7                qET095734
     K23T02X KC2023 10 08.08180 22 53 38.13 +19 57 35.6          20.5 VqET095734
     K23T02X KC2023 10 08.08927922 53 41.22 +19 58 08.7          20.3 GXET095858
     K23T02X KC2023 10 08.09851222 53 43.66 +19 58 44.6          20.6 GXET095858
     K23T02X KC2023 10 08.11029622 53 46.76 +19 59 30.3          20.9 GXET095858
Observer details:
204 Schiaparelli Observatory.  Observers L. Buzzi, G. Galli.  0.84-m f/3.5
    reflector + CCD.
734 Farpoint Observatory, Eskridge.  Observers D. Cromer, G. Hug, D. Goodin,
    R. Valentine.  Measurer G. Hug.  0.69-m f/3.54 reflector + CCD.
858 Tebbutt Observatory, Edgewood.  Observer F. B. Zoltowski.  0.51-m f/8.1
    Schmidt-Cassegrain + CCD.
F51 Pan-STARRS 1, Haleakala.  Observers J. Bulger, T. Lowe, P. Minguez, A.
    Schultz, I. Smith, K. Chambers.  Measurers K. Chambers, T. de Boer, J.
    Bulger, J. Fairlamb, H. Gao, M. Huber, C.-C. Lin, T. Lowe, E. Magnier, P.
    Minguez, Y. Ramanjooloo, A. Schultz, I. Smith, R. Wainscoat, R. Weryk, S.
    Chastel.  1.8-m Ritchey-Chretien + CCD.
H21 Astronomical Research Observatory, Westfield.  Observer R. Holmes.
    Measurers T. Linder, R. Holmes, L. Horn.  0.81-m f/4.0 astrograph + CCD.
I93 St Pardon de Conques.  Observer F. Losse.  0.40-m f/3.7 reflector + CMO.
Orbital elements:
2023 TX2                                                 Earth MOID = 0.0208 AU
Epoch 2023 Sept. 13.0 TT = JDT 2460200.5                Bell                    
M 345.52015              (2000.0)            P               Q                  
n   0.28846322     Peri.  180.21185     +0.74084298     -0.67051541             
a   2.2685190      Node   221.98525     +0.61633958     +0.70200779             
e   0.5534077      Incl.    3.38578     +0.26697791     +0.23998781             
P   3.42           H   25.36          G   0.15           U   9                  
Residuals in seconds of arc
231005 F51  0.5-  0.4-    231006 H21  0.3+  0.1+    231007 I93  0.1+  0.2+
231005 F51  0.1-  0.2-    231007 H21  0.7-  0.6+    231008 734  0.8+  0.3+
231005 F51  0.2-  0.2-    231007 H21  0.1+  0.5+    231008 734  1.5+  0.0
231005 F51  0.0   0.3-    231007 204  0.2-  0.0     231008 734  0.7+  0.1-
231005 F51  0.0   0.3-    231007 204  0.0   0.3-    231008 858  0.1+  0.2+
231006 H21  0.1+  0.1+    231007 I93  0.0   0.1-    231008 858  0.3+  0.0
231006 H21  0.4+  0.1+    231007 I93  0.3+  0.1+    231008 858  0.7+  0.2-
Ephemeris:
2023 TX2                 a,e,i = 2.27, 0.55, 3                   q = 1.0131
Date    TT    R. A. (2000) Decl.     Delta      r    Elong.  Phase     V
2023 09 08    22 19 46.4 +06 56 24   0.2201  1.2199   163.0    14.0    23.3
...
2023 09 23    22 21 31.0 +10 53 00   0.1398  1.1306   153.6    23.2    22.5
...
2023 10 01    22 31 01.4 +14 27 24   0.1027  1.0909   149.2    28.0    21.8
...
2023 10 07    22 48 37.3 +18 53 40   0.07700 1.0656   147.8    30.0    21.2
2023 10 08    22 53 10.1 +19 53 10   0.07294 1.0618   147.8    30.1    21.1
2023 10 09    22 58 23.8 +20 58 31   0.06895 1.0582   147.9    30.1    21.0
...
2023 10 15    23 53 56.5 +30 15 09   0.04741 1.0390   150.5    28.2    20.1
...
2023 10 23    03 45 03.0 +42 07 15   0.03390 1.0213   139.8    39.0    19.6
...
2023 11 07    07 53 46.9 +15 52 55   0.07394 1.0148   106.5    69.5    22.2
M. P. C. Staff               (C) Copyright 2023 MPC           M.P.E.C. 2023-T95
    
    
More information about the Iaude
mailing list